Regional Weather Roundup
Issued by NWS Portland, ME

Home | Current Version | Previous Version | Text Only | Print | Product List | Glossary On
Versions: 1 2 3 4 5 6 7 8 9 10 11 12 13 14 15 16 17 18 19 20 21 22 23 24 25 26 27 28 29 30 31 32 33 34 35 36 37 38 39 40 41 42 43 44 45 46 47 48 49 50
000
ASUS41 KGYX 291710
RWRGYX
WEATHER ROUNDUP FOR MAINE AND NEW HAMPSHIRE
NATIONAL WEATHER SERVICE GRAY ME
100 PM EDT TUE JUL 29 2014

MEZ002-005-006-010-012-015-018-020-021-024-026-027-029-291800-
MAINE

CITY           SKY/WX    TMP DP  RH WIND       PRES   REMARKS
PORTLAND       PTSUNNY   73  58  59 W10       29.77R
SANFORD        SUNNY     73  52  46 NW10G16   29.79R
BAR HARBOR     PTSUNNY   72  61  68 W6        29.74R
WISCASSET      SUNNY     74  57  55 VRB6      29.78R
ROCKLAND       PTSUNNY   72  59  64 W8        29.75R
FRYEBURG       SUNNY     75  54  47 VRB6      29.78R
LEWISTONAUBURN PTSUNNY   72  54  53 N7        29.78R
AUGUSTA        SUNNY     72  55  55 NW8       29.77S
WATERVILLE     MOSUNNY   72  57  60 W9G16     29.73R
BANGOR         PTSUNNY   73  57  57 W10       29.75R
GREENVILLE       N/A     66  54  65 VRB7G18   29.76R
MILLINOCKET    MOSUNNY   70  56  61 NW13G20   29.74R
HOULTON        CLOUDY    71  58  63 W10       29.69R
PRESQUE ISLE   CLOUDY    68  54  60 SW10      29.69R
FRENCHVILLE    CLOUDY    64  56  75 W13       29.67R
CARIBOU        CLOUDY    67  56  67 W9G17     29.67R
$$

NHZ002-005-008-009-011-012-014-291800-
NEW HAMPSHIRE

CITY           SKY/WX    TMP DP  RH WIND       PRES   REMARKS
PORTSMOUTH     MOSUNNY   75  57  52 W10       29.77R
ROCHESTER      MOSUNNY   73  53  49 VRB7      29.78S
NASHUA         MOSUNNY   74  54  49 NW7G16    29.81S
MANCHESTER     MOSUNNY   73  52  47 NW8       29.79S
CONCORD        MOSUNNY   71  50  47 NW8       29.81R
LACONIA          N/A     70  48  46 NW12G18   29.80R
PLYMOUTH       PTSUNNY   68  49  51 NW13      29.81R
BERLIN         PTSUNNY   68  50  52 VRB7      29.82R
WHITEFIELD     PTSUNNY   66  52  60 W5        29.83R
JAFFREY        PTSUNNY   70  52  52 W6        29.84R
LEBANON        PTSUNNY   71  48  43 N8        29.82R
MT WASHINGTON  FOG       43  43 100 W9          N/A  VSB 1/16
$$

VTZ005-007-008-291800-
VERMONT

CITY           SKY/WX    TMP DP  RH WIND       PRES   REMARKS
ST JOHNSBURY     N/A     67  49  52 MISG      29.82R
MONTPELIER     PTSUNNY   65  51  60 NW7       29.89R
BURLINGTON     MOSUNNY   69  50  50 NW12      29.85S
$$

MAZ007-012-024-CTZ003-RIZ002-NYZ038-NYZ072-291800-
SOUTHERN NEW ENGLAND AND NY

CITY           SKY/WX    TMP DP  RH WIND       PRES   REMARKS
BOSTON         MOSUNNY   76  56  49 SW8       29.80R
WORCESTER      MOSUNNY   71  54  54 W13       29.85R
NANTUCKET      SUNNY     72  61  68 SW10      29.83R
PROVIDENCE     PTSUNNY   76  57  51 W9        29.82R
HARTFORD       PTSUNNY   76  52  43 NW9       29.82S
ALBANY         MOSUNNY   71  52  50 W15       29.86S
NEW YORK CITY  PTSUNNY   72  51  47 NW9       29.86S
$$

ANZ081-ANZ082-ANZ150-NHZ014-MEZ023>029-291800-
COASTAL MARINE OBSERVATIONS

STATION/POSITION TIME  TEMP    WIND        PRES    WAVE
                       AIR SEA DIR/SP/G            HT/PER
                 (UTC) (F)     (DEG/KT/KT) (MB)    (FT/S)
MOUNT DESERT ROC 1700   58                 1007.9R
MATINICUS ROCK   1600          250/ 17/ 18 1007.0R
PORTLAND WX BUOY 1700   67 60  120/  4/  4 1008.0R   4/ 8
WELLS            1700   73 52  300/  9/ 12 1007.3R
ISLE OF SHOALS   1600   68     280/ 12/ 14 1007.8R
JEFFREYS LEDGE   1600      63                N/A     4/ 8
CASHES LEDGE BUO 1700   66 67  270/  4/  6 1007.8R
$$

.............KEY..............
   WCI - WIND CHILL
   TC  - TEMPERATURE IN CELSIUS
   VSB - VISIBILITY IN MILES
   HX  - HEAT INDEX
   FAIR- INDICATES FEW OR NO CLOUDS BELOW 12,000 FT, WITH NO
         SIGNIFICANT WEATHER AND/OR OBSTRUCTIONS TO VISIBILITY.





USA.gov is the U.S. government's official web portal to all federal, state and local government web resources and services.